Time,TemperatureF,DewpointF,PressureIn,WindDirection,WindDirectionDegrees,WindSpeedMPH,WindSpeedGustMPH,Humidity,HourlyPrecipIn,Conditions,Clouds,dailyrainin,SoftwareType,DateUTC
2013-04-02 00:02:00,34.7,3.9,31.98,SW,232,0.0,0.0,27,0.00,NA,NA,-99.99,wxupload 3.4,2013-04-02 04:02:00,
2013-04-02 00:04:00,34.5,3.8,31.98,SW,232,0.0,0.0,27,0.00,NA,NA,-99.99,wxupload 3.4,2013-04-02 04:04:00,
2013-04-02 00:07:00,34.5,3.8,31.98,NNW,337,0.0,0.0,27,0.00,NA,NA,-99.99,wxupload 3.4,2013-04-02 04:07:00,
2013-04-02 00:14:00,34.3,3.6,31.98,SE,143,0.0,4.0,27,0.00,NA,NA,-99.99,wxupload 3.4,2013-04-02 04:14:00,
2013-04-02 00:19:00,34.0,3.3,31.98,North,357,0.0,0.0,27,0.00,NA,NA,-99.99,wxupload 3.4,2013-04-02 04:19:00,
2013-04-02 00:27:00,34.3,3.6,31.98,NNE,31,0.0,0.0,27,0.00,NA,NA,-99.99,wxupload 3.4,2013-04-02 04:27:00,
2013-04-02 00:34:00,34.5,3.8,31.98,North,1,0.0,0.0,27,0.00,NA,NA,-99.99,wxupload 3.4,2013-04-02 04:34:00,
2013-04-02 00:39:00,34.9,4.1,31.98,NNE,24,0.0,4.0,27,0.00,NA,NA,-99.99,wxupload 3.4,2013-04-02 04:39:00,
2013-04-02 00:46:00,34.9,4.1,31.98,WNW,296,0.0,0.0,27,0.00,NA,NA,-99.99,wxupload 3.4,2013-04-02 04:46:00,
2013-04-02 00:51:00,35.1,4.2,31.98,West,268,0.0,0.0,27,0.00,NA,NA,-99.99,wxupload 3.4,2013-04-02 04:51:00,
2013-04-02 00:58:00,34.7,3.9,31.98,SW,218,0.0,0.0,27,0.00,NA,NA,-99.99,wxupload 3.4,2013-04-02 04:58:00,
2013-04-02 01:03:00,34.2,3.4,31.98,WNW,300,0.0,0.0,27,0.00,NA,NA,-99.99,wxupload 3.4,2013-04-02 05:03:00,
2013-04-02 01:10:00,33.8,3.1,31.98,South,186,0.0,0.0,27,0.00,NA,NA,-99.99,wxupload 3.4,2013-04-02 05:10:00,
2013-04-02 01:16:00,33.6,3.8,31.98,WNW,288,0.0,0.0,28,0.00,NA,NA,-99.99,wxupload 3.4,2013-04-02 05:16:00,
2013-04-02 01:22:00,33.3,3.5,31.98,West,260,0.0,5.0,28,0.00,NA,NA,-99.99,wxupload 3.4,2013-04-02 05:22:00,
2013-04-02 01:28:00,33.6,3.8,31.98,West,270,0.0,0.0,28,0.00,NA,NA,-99.99,wxupload 3.4,2013-04-02 05:28:00,
2013-04-02 01:33:00,33.6,3.8,31.98,South,182,0.0,0.0,28,0.00,NA,NA,-99.99,wxupload 3.4,2013-04-02 05:33:00,
2013-04-02 01:40:00,33.6,3.8,31.98,SSW,193,0.0,0.0,28,0.00,NA,NA,-99.99,wxupload 3.4,2013-04-02 05:40:00,
2013-04-02 01:45:00,33.6,3.8,31.98,South,186,0.0,0.0,28,0.00,NA,NA,-99.99,wxupload 3.4,2013-04-02 05:45:00,
2013-04-02 01:52:00,33.6,3.8,31.98,SSW,210,0.0,0.0,28,0.00,NA,NA,-99.99,wxupload 3.4,2013-04-02 05:52:00,
2013-04-02 01:57:00,33.4,3.6,31.98,West,259,0.0,0.0,28,0.00,NA,NA,-99.99,wxupload 3.4,2013-04-02 05:57:00,
2013-04-02 02:04:00,33.3,3.5,31.98,SSW,199,0.0,0.0,28,0.00,NA,NA,-99.99,wxupload 3.4,2013-04-02 06:04:00,
2013-04-02 02:09:00,33.1,0.8,31.98,WNW,284,0.0,0.0,25,0.00,NA,NA,-99.99,wxupload 3.4,2013-04-02 06:09:00,
2013-04-02 02:17:00,33.1,3.3,31.98,ENE,58,0.0,0.0,28,0.00,NA,NA,-99.99,wxupload 3.4,2013-04-02 06:17:00,
2013-04-02 02:24:00,33.1,3.3,31.98,SSW,204,0.0,0.0,28,0.00,NA,NA,-99.99,wxupload 3.4,2013-04-02 06:24:00,
2013-04-02 02:29:00,32.7,3.0,31.98,SW,219,0.0,0.0,28,0.00,NA,NA,-99.99,wxupload 3.4,2013-04-02 06:29:00,
2013-04-02 02:36:00,32.5,2.8,31.98,South,175,0.0,0.0,28,0.00,NA,NA,-99.99,wxupload 3.4,2013-04-02 06:36:00,
2013-04-02 02:42:00,32.7,3.0,31.98,NNW,343,0.0,0.0,28,0.00,NA,NA,-99.99,wxupload 3.4,2013-04-02 06:42:00,
2013-04-02 02:48:00,33.3,3.5,31.98,North,4,0.0,0.0,28,0.00,NA,NA,-99.99,wxupload 3.4,2013-04-02 06:48:00,
2013-04-02 02:54:00,33.6,3.8,31.98,NNE,24,0.0,0.0,28,0.00,NA,NA,-99.99,wxupload 3.4,2013-04-02 06:54:00,
2013-04-02 03:00:00,33.3,3.5,31.98,WNW,286,3.0,6.0,28,0.00,NA,NA,-99.99,wxupload 3.4,2013-04-02 07:00:00,
2013-04-02 03:06:00,33.6,3.8,31.98,North,5,3.0,6.0,28,0.00,NA,NA,-99.99,wxupload 3.4,2013-04-02 07:06:00,
2013-04-02 03:11:00,34.0,3.3,31.98,West,266,0.0,0.0,27,0.00,NA,NA,-99.99,wxupload 3.4,2013-04-02 07:11:00,
2013-04-02 03:18:00,33.4,3.6,31.98,SSE,149,0.0,3.0,28,0.00,NA,NA,-99.99,wxupload 3.4,2013-04-02 07:18:00,
2013-04-02 03:23:00,33.6,3.8,31.98,NW,324,0.0,0.0,28,0.00,NA,NA,-99.99,wxupload 3.4,2013-04-02 07:23:00,
2013-04-02 03:30:00,33.8,3.1,31.98,NNE,22,3.0,6.0,27,0.00,NA,NA,-99.99,wxupload 3.4,2013-04-02 07:30:00,
2013-04-02 03:35:00,34.0,3.3,31.98,WNW,291,0.0,0.0,27,0.00,NA,NA,-99.99,wxupload 3.4,2013-04-02 07:35:00,
2013-04-02 03:42:00,33.6,3.8,31.98,WNW,284,0.0,0.0,28,0.00,NA,NA,-99.99,wxupload 3.4,2013-04-02 07:42:00,
2013-04-02 03:48:00,33.4,3.6,31.98,NE,34,0.0,0.0,28,0.00,NA,NA,-99.99,wxupload 3.4,2013-04-02 07:48:00,
2013-04-02 03:54:00,33.3,3.5,31.98,NW,322,0.0,3.0,28,0.00,NA,NA,-99.99,wxupload 3.4,2013-04-02 07:54:00,
2013-04-02 04:00:00,33.1,3.3,31.98,NW,308,0.0,2.0,28,0.00,NA,NA,-99.99,wxupload 3.4,2013-04-02 08:00:00,
2013-04-02 04:05:00,32.7,3.0,31.98,NW,320,0.0,4.0,28,0.00,NA,NA,-99.99,wxupload 3.4,2013-04-02 08:05:00,
2013-04-02 04:12:00,32.5,2.8,31.98,NNW,336,0.0,0.0,28,0.00,NA,NA,-99.99,wxupload 3.4,2013-04-02 08:12:00,
2013-04-02 04:17:00,32.4,2.7,31.98,NNW,341,0.0,0.0,28,0.00,NA,NA,-99.99,wxupload 3.4,2013-04-02 08:17:00,
2013-04-02 04:24:00,32.4,2.7,31.98,NNW,338,0.0,3.0,28,0.00,NA,NA,-99.99,wxupload 3.4,2013-04-02 08:24:00,
2013-04-02 04:29:00,32.4,2.7,31.98,NW,307,0.0,0.0,28,0.00,NA,NA,-99.99,wxupload 3.4,2013-04-02 08:29:00,
2013-04-02 04:37:00,32.2,2.5,31.98,WNW,295,0.0,0.0,28,0.00,NA,NA,-99.99,wxupload 3.4,2013-04-02 08:37:00,
2013-04-02 04:44:00,32.2,2.5,31.98,NE,34,0.0,4.0,28,0.00,NA,NA,-99.99,wxupload 3.4,2013-04-02 08:44:00,
2013-04-02 04:49:00,32.2,2.5,31.98,NW,324,0.0,0.0,28,0.00,NA,NA,-99.99,wxupload 3.4,2013-04-02 08:49:00,
2013-04-02 04:56:00,32.4,2.7,31.98,NW,308,0.0,0.0,28,0.00,NA,NA,-99.99,wxupload 3.4,2013-04-02 08:56:00,
2013-04-02 05:01:00,32.0,2.3,31.98,NNE,31,0.0,0.0,28,0.00,NA,NA,-99.99,wxupload 3.4,2013-04-02 09:01:00,
2013-04-02 05:08:00,31.5,1.9,31.98,NNE,22,0.0,0.0,28,0.00,NA,NA,-99.99,wxupload 3.4,2013-04-02 09:08:00,
2013-04-02 05:14:00,30.9,1.4,31.98,NW,309,0.0,5.0,28,0.00,NA,NA,-99.99,wxupload 3.4,2013-04-02 09:14:00,
2013-04-02 05:20:00,30.6,1.1,32.01,WNW,298,0.0,0.0,28,0.00,NA,NA,-99.99,wxupload 3.4,2013-04-02 09:20:00,
2013-04-02 05:26:00,30.4,2.4,32.01,WNW,290,0.0,0.0,30,0.00,NA,NA,-99.99,wxupload 3.4,2013-04-02 09:26:00,
2013-04-02 05:31:00,30.2,2.3,32.01,West,266,0.0,0.0,30,0.00,NA,NA,-99.99,wxupload 3.4,2013-04-02 09:31:00,
2013-04-02 05:38:00,30.4,2.4,32.01,NW,324,0.0,0.0,30,0.00,NA,NA,-99.99,wxupload 3.4,2013-04-02 09:38:00,
2013-04-02 05:43:00,30.9,1.4,32.01,NNE,21,0.0,0.0,28,0.00,NA,NA,-99.99,wxupload 3.4,2013-04-02 09:43:00,
2013-04-02 05:50:00,31.1,1.5,32.01,WNW,286,0.0,0.0,28,0.00,NA,NA,-99.99,wxupload 3.4,2013-04-02 09:50:00,
2013-04-02 05:55:00,31.1,1.5,32.01,West,271,0.0,0.0,28,0.00,NA,NA,-99.99,wxupload 3.4,2013-04-02 09:55:00,
2013-04-02 06:02:00,31.1,1.5,32.01,North,353,0.0,0.0,28,0.00,NA,NA,-99.99,wxupload 3.4,2013-04-02 10:02:00,
2013-04-02 06:08:00,30.7,1.2,32.01,NNE,16,0.0,2.0,28,0.00,NA,NA,-99.99,wxupload 3.4,2013-04-02 10:08:00,
2013-04-02 06:14:00,31.1,1.5,32.01,NW,304,0.0,0.0,28,0.00,NA,NA,-99.99,wxupload 3.4,2013-04-02 10:14:00,
2013-04-02 06:20:00,30.9,1.4,32.01,SW,224,0.0,0.0,28,0.00,NA,NA,-99.99,wxupload 3.4,2013-04-02 10:20:00,
2013-04-02 06:25:00,30.6,1.1,32.01,WNW,285,0.0,0.0,28,0.00,NA,NA,-99.99,wxupload 3.4,2013-04-02 10:25:00,
2013-04-02 06:32:00,30.2,0.8,32.01,WNW,285,0.0,0.0,28,0.00,NA,NA,-99.99,wxupload 3.4,2013-04-02 10:32:00,
2013-04-02 06:37:00,30.0,0.6,32.01,SSW,210,0.0,0.0,28,0.00,NA,NA,-99.99,wxupload 3.4,2013-04-02 10:37:00,
2013-04-02 06:44:00,29.7,0.3,32.01,WNW,290,2.0,3.0,28,0.00,NA,NA,-99.99,wxupload 3.4,2013-04-02 10:44:00,
2013-04-02 06:49:00,29.8,0.4,32.01,WSW,249,0.0,3.0,28,0.00,NA,NA,-99.99,wxupload 3.4,2013-04-02 10:49:00,
2013-04-02 06:58:00,30.2,2.3,32.01,South,178,0.0,0.0,30,0.00,NA,NA,-99.99,wxupload 3.4,2013-04-02 10:58:00,
2013-04-02 07:04:00,30.2,2.3,32.04,South,185,0.0,0.0,30,0.00,NA,NA,-99.99,wxupload 3.4,2013-04-02 11:04:00,
2013-04-02 07:09:00,30.4,2.4,32.04,NNE,18,0.0,0.0,30,0.00,NA,NA,-99.99,wxupload 3.4,2013-04-02 11:09:00,
2013-04-02 07:16:00,30.6,2.6,32.04,SW,229,0.0,0.0,30,0.00,NA,NA,-99.99,wxupload 3.4,2013-04-02 11:16:00,
2013-04-02 07:22:00,30.9,2.9,32.04,West,277,0.0,0.0,30,0.00,NA,NA,-99.99,wxupload 3.4,2013-04-02 11:22:00,
2013-04-02 07:28:00,31.1,3.1,32.04,WNW,295,0.0,0.0,30,0.00,NA,NA,-99.99,wxupload 3.4,2013-04-02 11:28:00,
2013-04-02 07:34:00,31.1,1.5,32.04,ENE,72,0.0,0.0,28,0.00,NA,NA,-99.99,wxupload 3.4,2013-04-02 11:34:00,
2013-04-02 07:40:00,31.3,1.7,32.04,WNW,285,0.0,0.0,28,0.00,NA,NA,-99.99,wxupload 3.4,2013-04-02 11:40:00,
2013-04-02 07:46:00,31.5,1.9,32.04,NW,315,0.0,0.0,28,0.00,NA,NA,-99.99,wxupload 3.4,2013-04-02 11:46:00,
2013-04-02 07:51:00,31.6,2.0,32.04,SW,224,0.0,0.0,28,0.00,NA,NA,-99.99,wxupload 3.4,2013-04-02 11:51:00,
2013-04-02 07:58:00,32.0,2.3,32.04,NNW,330,0.0,4.0,28,0.00,NA,NA,-99.99,wxupload 3.4,2013-04-02 11:58:00,
2013-04-02 08:03:00,32.4,2.7,32.07,NNW,335,0.0,0.0,28,0.00,NA,NA,-99.99,wxupload 3.4,2013-04-02 12:03:00,
2013-04-02 08:10:00,32.7,3.0,32.07,WNW,298,0.0,0.0,28,0.00,NA,NA,-99.99,wxupload 3.4,2013-04-02 12:10:00,
2013-04-02 08:15:00,32.9,3.1,32.07,NW,316,0.0,0.0,28,0.00,NA,NA,-99.99,wxupload 3.4,2013-04-02 12:15:00,
2013-04-02 08:22:00,33.1,0.8,32.07,NW,316,3.0,6.0,25,0.00,NA,NA,-99.99,wxupload 3.4,2013-04-02 12:22:00,
2013-04-02 08:28:00,33.6,1.3,32.07,NNW,343,3.0,3.0,25,0.00,NA,NA,-99.99,wxupload 3.4,2013-04-02 12:28:00,
2013-04-02 08:34:00,33.8,1.4,32.07,NNW,332,4.0,8.0,25,0.00,NA,NA,-99.99,wxupload 3.4,2013-04-02 12:34:00,
2013-04-02 08:40:00,34.0,1.6,32.07,NE,42,4.0,5.0,25,0.00,NA,NA,-99.99,wxupload 3.4,2013-04-02 12:40:00,
2013-04-02 08:45:00,34.3,1.9,32.07,North,357,3.0,4.0,25,0.00,NA,NA,-99.99,wxupload 3.4,2013-04-02 12:45:00,
2013-04-02 08:52:00,34.7,2.2,32.07,NW,321,3.0,3.0,25,0.00,NA,NA,-99.99,wxupload 3.4,2013-04-02 12:52:00,
2013-04-02 08:57:00,34.9,2.4,32.07,North,0,0.0,0.0,25,0.00,NA,NA,-99.99,wxupload 3.4,2013-04-02 12:57:00,
2013-04-02 09:04:00,35.2,2.7,32.07,NE,52,3.0,4.0,25,0.00,NA,NA,-99.99,wxupload 3.4,2013-04-02 13:04:00,
2013-04-02 09:10:00,35.6,2.1,32.07,NNE,16,4.0,5.0,24,0.00,NA,NA,-99.99,wxupload 3.4,2013-04-02 13:10:00,
2013-04-02 09:17:00,35.8,2.3,32.07,North,0,2.0,2.0,24,0.00,NA,NA,-99.99,wxupload 3.4,2013-04-02 13:17:00,
2013-04-02 09:24:00,35.8,2.3,32.07,North,353,0.0,4.0,24,0.00,NA,NA,-99.99,wxupload 3.4,2013-04-02 13:24:00,
2013-04-02 09:29:00,36.1,2.6,32.07,NW,319,4.0,8.0,24,0.00,NA,NA,-99.99,wxupload 3.4,2013-04-02 13:29:00,
2013-04-02 09:38:00,36.5,2.9,32.07,WNW,300,4.0,5.0,24,0.00,NA,NA,-99.99,wxupload 3.4,2013-04-02 13:38:00,
2013-04-02 09:44:00,36.7,3.1,32.07,WNW,301,3.0,5.0,24,0.00,NA,NA,-99.99,wxupload 3.4,2013-04-02 13:44:00,
2013-04-02 09:49:00,36.9,1.3,32.07,NNW,338,5.0,8.0,22,0.00,NA,NA,-99.99,wxupload 3.4,2013-04-02 13:49:00,
2013-04-02 09:58:00,37.0,1.5,32.07,NW,326,4.0,5.0,22,0.00,NA,NA,-99.99,wxupload 3.4,2013-04-02 13:58:00,
2013-04-02 10:04:00,37.4,0.8,32.07,NNW,342,3.0,5.0,21,0.00,NA,NA,-99.99,wxupload 3.4,2013-04-02 14:04:00,
2013-04-02 10:10:00,37.8,1.1,32.07,NNW,341,5.0,6.0,21,0.00,NA,NA,-99.99,wxupload 3.4,2013-04-02 14:10:00,
2013-04-02 10:16:00,37.6,0.9,32.07,NNW,344,2.0,4.0,21,0.00,NA,NA,-99.99,wxupload 3.4,2013-04-02 14:16:00,
2013-04-02 10:21:00,38.1,1.4,32.07,North,8,3.0,4.0,21,0.00,NA,NA,-99.99,wxupload 3.4,2013-04-02 14:21:00,
2013-04-02 10:28:00,38.1,1.4,32.07,NNW,332,2.0,5.0,21,0.00,NA,NA,-99.99,wxupload 3.4,2013-04-02 14:28:00,
2013-04-02 10:33:00,38.7,1.8,32.07,NNE,33,2.0,5.0,21,0.00,NA,NA,-99.99,wxupload 3.4,2013-04-02 14:33:00,
2013-04-02 10:40:00,38.8,2.0,32.07,NW,310,4.0,6.0,21,0.00,NA,NA,-99.99,wxupload 3.4,2013-04-02 14:40:00,
2013-04-02 10:46:00,38.7,1.8,32.07,NW,307,4.0,6.0,21,0.00,NA,NA,-99.99,wxupload 3.4,2013-04-02 14:46:00,
2013-04-02 10:52:00,38.7,1.8,32.07,NNE,31,5.0,6.0,21,0.00,NA,NA,-99.99,wxupload 3.4,2013-04-02 14:52:00,
2013-04-02 10:58:00,38.8,2.0,32.07,NW,317,3.0,5.0,21,0.00,NA,NA,-99.99,wxupload 3.4,2013-04-02 14:58:00,
2013-04-02 11:04:00,39.4,4.5,32.07,NNE,29,2.0,4.0,23,0.00,NA,NA,-99.99,wxupload 3.4,2013-04-02 15:04:00,
2013-04-02 11:10:00,39.4,2.5,32.07,NNW,345,5.0,9.0,21,0.00,NA,NA,-99.99,wxupload 3.4,2013-04-02 15:10:00,
2013-04-02 11:16:00,40.1,3.1,32.07,NW,316,3.0,4.0,21,0.00,NA,NA,-99.99,wxupload 3.4,2013-04-02 15:16:00,
2013-04-02 11:24:00,40.3,5.2,32.07,NNE,14,4.0,6.0,23,0.00,NA,NA,-99.99,wxupload 3.4,2013-04-02 15:24:00,
2013-04-02 11:30:00,40.6,3.5,32.07,NNE,20,3.0,4.0,21,0.00,NA,NA,-99.99,wxupload 3.4,2013-04-02 15:30:00,
2013-04-02 11:37:00,41.4,6.2,32.07,NW,323,0.0,6.0,23,0.00,NA,NA,-99.99,wxupload 3.4,2013-04-02 15:37:00,
2013-04-02 11:44:00,41.2,4.0,32.07,North,0,0.0,6.0,21,0.00,NA,NA,-99.99,wxupload 3.4,2013-04-02 15:44:00,
2013-04-02 11:52:00,41.5,4.3,32.07,NNW,340,4.0,6.0,21,0.00,NA,NA,-99.99,wxupload 3.4,2013-04-02 15:52:00,
2013-04-02 11:57:00,42.1,4.8,32.07,NNE,29,3.0,4.0,21,0.00,NA,NA,-99.99,wxupload 3.4,2013-04-02 15:57:00,
2013-04-02 12:04:00,42.8,7.4,32.07,NNW,337,3.0,4.0,23,0.00,NA,NA,-99.99,wxupload 3.4,2013-04-02 16:04:00,
2013-04-02 12:12:00,43.9,5.2,32.07,NE,42,4.0,9.0,20,0.00,NA,NA,-99.99,wxupload 3.4,2013-04-02 16:12:00,
2013-04-02 12:17:00,44.1,5.4,32.07,NNW,332,4.0,6.0,20,0.00,NA,NA,-99.99,wxupload 3.4,2013-04-02 16:17:00,
2013-04-02 12:24:00,43.9,5.2,32.07,NNW,342,0.0,5.0,20,0.00,NA,NA,-99.99,wxupload 3.4,2013-04-02 16:24:00,
2013-04-02 12:29:00,43.5,4.9,32.07,WNW,301,0.0,0.0,20,0.00,NA,NA,-99.99,wxupload 3.4,2013-04-02 16:29:00,
2013-04-02 12:38:00,44.6,5.9,32.07,NW,305,2.0,6.0,20,0.00,NA,NA,-99.99,wxupload 3.4,2013-04-02 16:38:00,
2013-04-02 12:44:00,45.5,6.6,32.07,West,266,3.0,5.0,20,0.00,NA,NA,-99.99,wxupload 3.4,2013-04-02 16:44:00,
2013-04-02 12:49:00,45.7,6.8,32.07,NNE,16,0.0,0.0,20,0.00,NA,NA,-99.99,wxupload 3.4,2013-04-02 16:49:00,
2013-04-02 12:56:00,46.0,7.1,32.07,WSW,249,0.0,3.0,20,0.00,NA,NA,-99.99,wxupload 3.4,2013-04-02 16:56:00,
2013-04-02 13:04:00,45.7,6.8,32.07,NNW,330,4.0,6.0,20,0.00,NA,NA,-99.99,wxupload 3.4,2013-04-02 17:04:00,
2013-04-02 13:09:00,46.0,7.1,32.07,NW,310,5.0,6.0,20,0.00,NA,NA,-99.99,wxupload 3.4,2013-04-02 17:09:00,
2013-04-02 13:16:00,46.4,6.2,32.07,ENE,73,0.0,3.0,19,0.00,NA,NA,-99.99,wxupload 3.4,2013-04-02 17:16:00,
2013-04-02 13:23:00,46.8,6.5,32.07,NNE,22,3.0,6.0,19,0.00,NA,NA,-99.99,wxupload 3.4,2013-04-02 17:23:00,
2013-04-02 13:29:00,46.8,6.5,32.07,North,357,4.0,6.0,19,0.00,NA,NA,-99.99,wxupload 3.4,2013-04-02 17:29:00,
2013-04-02 13:36:00,47.3,7.0,32.07,NW,320,0.0,3.0,19,0.00,NA,NA,-99.99,wxupload 3.4,2013-04-02 17:36:00,
2013-04-02 13:41:00,47.8,7.5,32.07,North,7,3.0,8.0,19,0.00,NA,NA,-99.99,wxupload 3.4,2013-04-02 17:41:00,
2013-04-02 13:48:00,48.6,8.1,32.07,NW,310,2.0,5.0,19,0.00,NA,NA,-99.99,wxupload 3.4,2013-04-02 17:48:00,
2013-04-02 13:53:00,48.7,8.2,32.07,NW,326,4.0,6.0,19,0.00,NA,NA,-99.99,wxupload 3.4,2013-04-02 17:53:00,
2013-04-02 13:59:00,48.2,7.8,32.07,North,7,5.0,8.0,19,0.00,NA,NA,-99.99,wxupload 3.4,2013-04-02 17:59:00,
2013-04-02 14:05:00,48.0,7.6,32.04,NNW,337,6.0,6.0,19,0.00,NA,NA,-99.99,wxupload 3.4,2013-04-02 18:05:00,
2013-04-02 14:13:00,48.9,8.4,32.04,WNW,302,4.0,6.0,19,0.00,NA,NA,-99.99,wxupload 3.4,2013-04-02 18:13:00,
2013-04-02 14:19:00,48.7,8.2,32.04,NW,315,4.0,4.0,19,0.00,NA,NA,-99.99,wxupload 3.4,2013-04-02 18:19:00,
2013-04-02 14:25:00,49.6,9.0,32.04,NE,34,4.0,6.0,19,0.00,NA,NA,-99.99,wxupload 3.4,2013-04-02 18:25:00,
2013-04-02 14:31:00,49.8,9.1,32.04,NNW,329,4.0,4.0,19,0.00,NA,NA,-99.99,wxupload 3.4,2013-04-02 18:31:00,
2013-04-02 14:37:00,50.2,9.4,32.04,NW,308,2.0,4.0,19,0.00,NA,NA,-99.99,wxupload 3.4,2013-04-02 18:37:00,
2013-04-02 14:43:00,50.5,9.7,32.04,NNW,338,3.0,4.0,19,0.00,NA,NA,-99.99,wxupload 3.4,2013-04-02 18:43:00,
2013-04-02 14:49:00,51.3,10.4,32.04,West,269,0.0,3.0,19,0.00,NA,NA,-99.99,wxupload 3.4,2013-04-02 18:49:00,
2013-04-02 14:59:00,50.7,9.9,32.04,North,0,3.0,5.0,19,0.00,NA,NA,-99.99,wxupload 3.4,2013-04-02 18:59:00,
2013-04-02 15:05:00,50.2,9.4,32.04,NE,44,3.0,4.0,19,0.00,NA,NA,-99.99,wxupload 3.4,2013-04-02 19:05:00,
2013-04-02 15:13:00,48.7,8.2,32.04,North,0,5.0,6.0,19,0.00,NA,NA,-99.99,wxupload 3.4,2013-04-02 19:13:00,
2013-04-02 15:19:00,49.3,8.7,32.04,North,0,4.0,6.0,19,0.00,NA,NA,-99.99,wxupload 3.4,2013-04-02 19:19:00,
2013-04-02 15:25:00,49.8,9.1,32.04,NNW,343,4.0,8.0,19,0.00,NA,NA,-99.99,wxupload 3.4,2013-04-02 19:25:00,
2013-04-02 15:31:00,49.5,8.8,32.04,NW,311,0.0,3.0,19,0.00,NA,NA,-99.99,wxupload 3.4,2013-04-02 19:31:00,
2013-04-02 15:37:00,49.5,8.8,32.04,NNE,28,6.0,6.0,19,0.00,NA,NA,-99.99,wxupload 3.4,2013-04-02 19:37:00,
2013-04-02 15:43:00,49.8,9.1,32.04,NW,319,4.0,5.0,19,0.00,NA,NA,-99.99,wxupload 3.4,2013-04-02 19:43:00,
2013-04-02 15:49:00,49.8,9.1,32.04,WSW,253,0.0,5.0,19,0.00,NA,NA,-99.99,wxupload 3.4,2013-04-02 19:49:00,
2013-04-02 15:55:00,50.2,9.4,32.04,NNE,12,3.0,4.0,19,0.00,NA,NA,-99.99,wxupload 3.4,2013-04-02 19:55:00,
2013-04-02 16:03:00,50.5,9.7,32.04,NNW,327,4.0,0.0,19,0.00,NA,NA,-99.99,wxupload 3.4,2013-04-02 20:03:00,
2013-04-02 16:09:00,49.6,9.0,32.04,NNW,331,4.0,6.0,19,0.00,NA,NA,-99.99,wxupload 3.4,2013-04-02 20:09:00,
2013-04-02 16:15:00,49.6,9.0,32.04,North,1,4.0,4.0,19,0.00,NA,NA,-99.99,wxupload 3.4,2013-04-02 20:15:00,
2013-04-02 16:21:00,49.8,9.1,32.04,NW,321,2.0,4.0,19,0.00,NA,NA,-99.99,wxupload 3.4,2013-04-02 20:21:00,
2013-04-02 16:27:00,50.5,9.7,32.04,NW,313,4.0,5.0,19,0.00,NA,NA,-99.99,wxupload 3.4,2013-04-02 20:27:00,
2013-04-02 16:33:00,50.7,9.9,32.04,NW,312,0.0,3.0,19,0.00,NA,NA,-99.99,wxupload 3.4,2013-04-02 20:33:00,
2013-04-02 16:39:00,51.3,10.4,32.04,NNE,23,2.0,3.0,19,0.00,NA,NA,-99.99,wxupload 3.4,2013-04-02 20:39:00,
2013-04-02 16:45:00,50.4,9.6,32.04,North,353,3.0,6.0,19,0.00,NA,NA,-99.99,wxupload 3.4,2013-04-02 20:45:00,
2013-04-02 16:51:00,50.0,9.3,32.04,NE,56,0.0,0.0,19,0.00,NA,NA,-99.99,wxupload 3.4,2013-04-02 20:51:00,
2013-04-02 16:57:00,50.2,9.4,32.04,North,10,3.0,4.0,19,0.00,NA,NA,-99.99,wxupload 3.4,2013-04-02 20:57:00,
2013-04-02 17:05:00,49.3,8.7,32.04,NNE,28,3.0,7.0,19,0.00,NA,NA,-99.99,wxupload 3.4,2013-04-02 21:05:00,
2013-04-02 17:13:00,48.7,8.2,32.04,ENE,75,6.0,8.0,19,0.00,NA,NA,-99.99,wxupload 3.4,2013-04-02 21:13:00,
2013-04-02 17:19:00,48.6,8.1,32.04,NNW,331,4.0,4.0,19,0.00,NA,NA,-99.99,wxupload 3.4,2013-04-02 21:19:00,
2013-04-02 17:25:00,48.2,7.8,32.04,NW,322,3.0,4.0,19,0.00,NA,NA,-99.99,wxupload 3.4,2013-04-02 21:25:00,
2013-04-02 17:31:00,47.7,7.3,32.04,East,86,0.0,4.0,19,0.00,NA,NA,-99.99,wxupload 3.4,2013-04-02 21:31:00,
2013-04-02 17:37:00,47.3,7.0,32.07,NNW,327,0.0,3.0,19,0.00,NA,NA,-99.99,wxupload 3.4,2013-04-02 21:37:00,
2013-04-02 17:43:00,46.8,6.5,32.07,NW,325,4.0,6.0,19,0.00,NA,NA,-99.99,wxupload 3.4,2013-04-02 21:43:00,
2013-04-02 17:49:00,45.5,6.6,32.07,NNW,341,3.0,6.0,20,0.00,NA,NA,-99.99,wxupload 3.4,2013-04-02 21:49:00,
2013-04-02 17:55:00,45.5,6.6,32.07,West,279,0.0,0.0,20,0.00,NA,NA,-99.99,wxupload 3.4,2013-04-02 21:55:00,
2013-04-02 18:01:00,45.3,6.5,32.07,NNE,27,0.0,4.0,20,0.00,NA,NA,-99.99,wxupload 3.4,2013-04-02 22:01:00,
2013-04-02 18:07:00,45.5,6.6,32.07,NNW,340,0.0,0.0,20,0.00,NA,NA,-99.99,wxupload 3.4,2013-04-02 22:07:00,
2013-04-02 18:13:00,45.3,6.5,32.07,NW,314,2.0,4.0,20,0.00,NA,NA,-99.99,wxupload 3.4,2013-04-02 22:13:00,
2013-04-02 18:19:00,45.1,6.3,32.07,NNW,341,0.0,0.0,20,0.00,NA,NA,-99.99,wxupload 3.4,2013-04-02 22:19:00,
2013-04-02 18:25:00,45.0,6.2,32.07,NNW,342,0.0,0.0,20,0.00,NA,NA,-99.99,wxupload 3.4,2013-04-02 22:25:00,
2013-04-02 18:31:00,44.6,5.9,32.07,NNW,342,0.0,0.0,20,0.00,NA,NA,-99.99,wxupload 3.4,2013-04-02 22:31:00,
2013-04-02 18:37:00,44.1,5.4,32.07,West,272,0.0,0.0,20,0.00,NA,NA,-99.99,wxupload 3.4,2013-04-02 22:37:00,
2013-04-02 18:43:00,43.9,5.2,32.07,NW,311,2.0,5.0,20,0.00,NA,NA,-99.99,wxupload 3.4,2013-04-02 22:43:00,
2013-04-02 18:49:00,43.5,4.9,32.10,West,263,0.0,2.0,20,0.00,NA,NA,-99.99,wxupload 3.4,2013-04-02 22:49:00,
2013-04-02 18:55:00,42.8,4.3,32.10,NW,311,0.0,0.0,20,0.00,NA,NA,-99.99,wxupload 3.4,2013-04-02 22:55:00,
2013-04-02 19:01:00,42.3,4.9,32.10,WSW,256,0.0,0.0,21,0.00,NA,NA,-99.99,wxupload 3.4,2013-04-02 23:01:00,
2013-04-02 19:07:00,41.7,4.5,32.10,NNE,22,0.0,0.0,21,0.00,NA,NA,-99.99,wxupload 3.4,2013-04-02 23:07:00,
2013-04-02 19:12:00,41.2,4.0,32.10,NW,314,0.0,0.0,21,0.00,NA,NA,-99.99,wxupload 3.4,2013-04-02 23:12:00,
2013-04-02 19:19:00,40.5,3.4,32.10,NW,318,0.0,4.0,21,0.00,NA,NA,-99.99,wxupload 3.4,2013-04-02 23:19:00,
2013-04-02 19:25:00,40.1,3.1,32.10,NNW,338,0.0,0.0,21,0.00,NA,NA,-99.99,wxupload 3.4,2013-04-02 23:25:00,
2013-04-02 19:33:00,39.2,2.3,32.10,North,4,0.0,3.0,21,0.00,NA,NA,-99.99,wxupload 3.4,2013-04-02 23:33:00,
2013-04-02 19:39:00,38.7,1.8,32.10,NW,324,0.0,0.0,21,0.00,NA,NA,-99.99,wxupload 3.4,2013-04-02 23:39:00,
2013-04-02 19:44:00,38.7,1.8,32.10,West,277,0.0,0.0,21,0.00,NA,NA,-99.99,wxupload 3.4,2013-04-02 23:44:00,
2013-04-02 19:52:00,38.3,1.5,32.10,WNW,293,0.0,0.0,21,0.00,NA,NA,-99.99,wxupload 3.4,2013-04-02 23:52:00,
2013-04-02 19:59:00,38.1,1.4,32.10,NE,35,0.0,0.0,21,0.00,NA,NA,-99.99,wxupload 3.4,2013-04-02 23:59:00,
2013-04-02 20:04:00,37.8,1.1,32.10,NE,36,0.0,0.0,21,0.00,NA,NA,-99.99,wxupload 3.4,2013-04-03 00:04:00,
2013-04-02 20:11:00,37.4,0.8,32.10,NNE,33,0.0,0.0,21,0.00,NA,NA,-99.99,wxupload 3.4,2013-04-03 00:11:00,
2013-04-02 20:16:00,37.0,1.5,32.10,NNE,33,0.0,0.0,22,0.00,NA,NA,-99.99,wxupload 3.4,2013-04-03 00:16:00,
2013-04-02 20:22:00,36.3,0.8,32.10,NNE,32,0.0,0.0,22,0.00,NA,NA,-99.99,wxupload 3.4,2013-04-03 00:22:00,
2013-04-02 20:29:00,36.3,0.8,32.10,ENE,62,0.0,0.0,22,0.00,NA,NA,-99.99,wxupload 3.4,2013-04-03 00:29:00,
2013-04-02 20:34:00,36.7,1.2,32.10,SW,222,0.0,0.0,22,0.00,NA,NA,-99.99,wxupload 3.4,2013-04-03 00:34:00,
2013-04-02 20:42:00,36.0,0.5,32.10,NW,323,0.0,0.0,22,0.00,NA,NA,-99.99,wxupload 3.4,2013-04-03 00:42:00,
2013-04-02 20:49:00,36.0,0.5,32.10,NW,309,0.0,0.0,22,0.00,NA,NA,-99.99,wxupload 3.4,2013-04-03 00:49:00,
2013-04-02 20:54:00,35.8,0.4,32.10,NNE,31,0.0,0.0,22,0.00,NA,NA,-99.99,wxupload 3.4,2013-04-03 00:54:00,
2013-04-02 21:02:00,35.4,0.1,32.10,NNE,12,0.0,0.0,22,0.00,NA,NA,-99.99,wxupload 3.4,2013-04-03 01:02:00,
2013-04-02 21:08:00,35.2,-0.1,32.10,NNE,12,0.0,0.0,22,0.00,NA,NA,-99.99,wxupload 3.4,2013-04-03 01:08:00,
2013-04-02 21:14:00,34.9,-0.4,32.10,NNE,12,0.0,0.0,22,0.00,NA,NA,-99.99,wxupload 3.4,2013-04-03 01:14:00,
2013-04-02 21:21:00,34.9,-0.4,32.13,NNE,13,0.0,0.0,22,0.00,NA,NA,-99.99,wxupload 3.4,2013-04-03 01:21:00,
2013-04-02 21:26:00,34.3,-0.9,32.13,WNW,294,0.0,0.0,22,0.00,NA,NA,-99.99,wxupload 3.4,2013-04-03 01:26:00,
2013-04-02 21:32:00,34.0,-1.2,32.13,WSW,258,0.0,0.0,22,0.00,NA,NA,-99.99,wxupload 3.4,2013-04-03 01:32:00,
2013-04-02 21:38:00,33.6,-0.5,32.13,WSW,258,0.0,0.0,23,0.00,NA,NA,-99.99,wxupload 3.4,2013-04-03 01:38:00,
2013-04-02 21:44:00,33.3,-0.8,32.13,NNE,25,0.0,0.0,23,0.00,NA,NA,-99.99,wxupload 3.4,2013-04-03 01:44:00,
2013-04-02 21:50:00,33.1,-1.0,32.13,NNE,25,0.0,0.0,23,0.00,NA,NA,-99.99,wxupload 3.4,2013-04-03 01:50:00,
2013-04-02 21:56:00,32.5,-1.5,32.13,NNE,25,0.0,0.0,23,0.00,NA,NA,-99.99,wxupload 3.4,2013-04-03 01:56:00,
2013-04-02 22:02:00,32.2,-1.8,32.13,NNE,25,0.0,0.0,23,0.00,NA,NA,-99.99,wxupload 3.4,2013-04-03 02:02:00,
2013-04-02 22:08:00,31.8,-2.1,32.13,NNE,25,0.0,0.0,23,0.00,NA,NA,-99.99,wxupload 3.4,2013-04-03 02:08:00,
2013-04-02 22:14:00,31.6,-2.2,32.13,NNE,25,0.0,0.0,23,0.00,NA,NA,-99.99,wxupload 3.4,2013-04-03 02:14:00,
2013-04-02 22:21:00,31.3,-2.5,32.13,NNE,25,0.0,0.0,23,0.00,NA,NA,-99.99,wxupload 3.4,2013-04-03 02:21:00,
2013-04-02 22:26:00,31.1,-2.7,32.13,NNE,25,0.0,0.0,23,0.00,NA,NA,-99.99,wxupload 3.4,2013-04-03 02:26:00,
2013-04-02 22:32:00,30.7,-3.0,32.13,NNE,25,0.0,0.0,23,0.00,NA,NA,-99.99,wxupload 3.4,2013-04-03 02:32:00,
2013-04-02 22:38:00,30.7,-3.0,32.13,NNE,25,0.0,0.0,23,0.00,NA,NA,-99.99,wxupload 3.4,2013-04-03 02:38:00,
2013-04-02 22:44:00,30.4,-3.3,32.13,NNE,25,0.0,0.0,23,0.00,NA,NA,-99.99,wxupload 3.4,2013-04-03 02:44:00,
2013-04-02 22:50:00,30.4,-3.3,32.13,NNE,25,0.0,0.0,23,0.00,NA,NA,-99.99,wxupload 3.4,2013-04-03 02:50:00,
2013-04-02 22:56:00,30.6,-3.2,32.13,NNE,25,0.0,0.0,23,0.00,NA,NA,-99.99,wxupload 3.4,2013-04-03 02:56:00,
2013-04-02 23:02:00,30.6,-3.2,32.13,NNE,25,0.0,0.0,23,0.00,NA,NA,-99.99,wxupload 3.4,2013-04-03 03:02:00,
2013-04-02 23:08:00,30.6,-3.2,32.13,NNE,25,0.0,0.0,23,0.00,NA,NA,-99.99,wxupload 3.4,2013-04-03 03:08:00,
2013-04-02 23:14:00,30.6,-3.2,32.13,NNE,25,0.0,0.0,23,0.00,NA,NA,-99.99,wxupload 3.4,2013-04-03 03:14:00,
2013-04-02 23:20:00,30.7,-1.2,32.13,NNE,25,0.0,0.0,25,0.00,NA,NA,-99.99,wxupload 3.4,2013-04-03 03:20:00,
2013-04-02 23:26:00,30.7,-1.2,32.13,NNE,25,0.0,0.0,25,0.00,NA,NA,-99.99,wxupload 3.4,2013-04-03 03:26:00,
2013-04-02 23:32:00,30.6,-1.4,32.13,NNE,22,0.0,0.0,25,0.00,NA,NA,-99.99,wxupload 3.4,2013-04-03 03:32:00,
2013-04-02 23:38:00,30.4,-1.5,32.13,NNE,22,0.0,0.0,25,0.00,NA,NA,-99.99,wxupload 3.4,2013-04-03 03:38:00,
2013-04-02 23:44:00,30.0,-1.9,32.13,NNE,22,0.0,0.0,25,0.00,NA,NA,-99.99,wxupload 3.4,2013-04-03 03:44:00,
2013-04-02 23:50:00,29.8,-2.0,32.13,NNE,22,0.0,0.0,25,0.00,NA,NA,-99.99,wxupload 3.4,2013-04-03 03:50:00,
2013-04-02 23:58:00,29.7,-2.2,32.13,NNE,22,0.0,0.0,25,0.00,NA,NA,-99.99,wxupload 3.4,2013-04-03 03:58:00,